Date String (YYYY-MM-DD hh:mm:ss) UTC,Instrument flags,Ambient pressure (hPa),Sample flow (lpm),Bypass flow (lpm),Sample temperature (°C),Ambient temperature (°C),ASC tube jacket temperature (°C),LED temperature (°C),Box temperature (°C),Sample RH (%),Span deviation,Mass concentration (μg/m³),Mass concentration (μg/m³),Mass concentration (μg/m³)
DateTimeUTC,F1_M11,P_M11,Q1_M11,Q2_M11,T1_M11,T2_M11,T3_M11,T4_M11,T5_M11,U1_M11,ZSPAN_M11,X0_M11,X2_M11,X1_M11
2022-04-13 19:00:00,,0818.0,5.00,0.00,22.1,21.2,00.0,31.0,23.7,02.8,0000.0,0006.47,0001.76,0000.94
2022-04-13 19:01:00,,0818.3,5.00,0.00,22.0,21.0,00.0,31.0,23.7,02.9,0000.0,0006.75,0001.76,0000.95
2022-04-13 19:02:00,,0818.3,5.00,0.00,22.0,20.9,00.0,31.0,23.7,03.0,0000.0,0007.17,0001.72,0000.95
2022-04-13 19:03:00,,0818.1,4.99,0.00,22.0,20.8,00.0,30.9,23.7,03.0,0000.0,0007.66,0001.75,0000.96
2022-04-13 19:04:00,,0818.2,5.01,0.00,21.9,20.7,00.0,30.9,23.6,02.8,0000.0,0008.06,0001.78,0000.97
2022-04-13 19:05:00,,0818.2,5.00,0.00,21.9,20.7,00.0,30.9,23.5,02.9,0000.0,0007.40,0001.79,0000.97
2022-04-13 19:06:00,,0818.0,4.99,0.00,21.9,20.6,00.0,30.9,23.5,03.0,0000.0,0007.97,0001.84,0000.98
2022-04-13 19:07:00,,0818.3,5.02,0.00,21.9,20.5,00.0,30.9,23.4,03.0,0000.0,0009.30,0001.91,0000.97
2022-04-13 19:08:00,,0818.4,4.98,0.00,21.8,20.5,00.0,30.9,23.4,03.0,0000.0,0009.56,0001.90,0000.97
2022-04-13 19:09:00,,0818.5,5.01,0.00,21.8,20.4,00.0,30.8,23.3,03.1,0000.0,0009.94,0001.92,0000.97
2022-04-13 19:10:00,,0818.7,5.00,0.00,21.8,20.7,00.0,30.8,23.4,03.1,0000.0,0009.91,0001.88,0000.96
2022-04-13 19:11:00,,0818.7,4.99,0.00,21.9,21.7,00.0,30.9,23.7,03.2,0000.0,0009.91,0001.83,0000.94
2022-04-13 19:12:00,,0818.8,5.01,0.00,22.0,22.9,00.0,30.9,24.0,03.2,0000.0,0009.80,0001.77,0000.94
2022-04-13 19:13:00,,0818.7,5.01,0.00,22.2,23.3,00.0,31.0,24.2,03.2,0000.0,0009.41,0001.79,0000.93
2022-04-13 19:14:00,,0818.8,5.00,0.00,22.2,22.9,00.0,31.0,24.2,03.1,0000.0,0009.07,0001.73,0000.92
2022-04-13 19:15:00,,0818.7,4.99,0.00,22.2,22.6,00.0,31.0,24.1,03.1,0000.0,0008.39,0001.69,0000.92
2022-04-13 19:16:00,,0818.6,4.98,0.00,22.2,22.3,00.0,31.0,24.0,03.0,0000.0,0008.56,0001.69,0000.92
2022-04-13 19:17:00,,0818.6,5.00,0.00,22.2,22.0,00.0,31.0,23.9,03.0,0000.0,0008.18,0001.70,0000.93
2022-04-13 19:18:00,,0818.7,5.00,0.00,22.1,21.8,00.0,31.0,23.8,03.0,0000.0,0005.73,0001.67,0000.93
2022-04-13 19:19:00,,0818.5,5.00,0.00,22.1,21.6,00.0,31.0,23.8,03.1,0000.0,0005.12,0001.65,0000.93
2022-04-13 19:20:00,,0818.7,5.00,0.00,22.1,21.4,00.0,31.0,23.8,03.2,0000.0,0004.40,0001.62,0000.94
2022-04-13 19:21:00,,0818.7,5.00,0.00,22.1,21.3,00.0,31.0,23.7,03.1,0000.0,0004.21,0001.62,0000.94
2022-04-13 19:22:00,,0818.7,4.99,0.00,22.0,21.2,00.0,31.0,23.7,03.0,0000.0,0004.01,0001.61,0000.95
2022-04-13 19:23:00,,0818.5,5.00,0.00,22.0,21.1,00.0,31.0,23.7,02.9,0000.0,0003.47,0001.59,0000.94
2022-04-13 19:24:00,,0818.5,5.00,0.00,22.0,21.0,00.0,31.0,23.6,02.9,0000.0,0003.37,0001.57,0000.94
2022-04-13 19:25:00,,0818.4,5.00,0.00,22.0,20.9,00.0,31.0,23.5,02.9,0000.0,0003.40,0001.60,0000.94
2022-04-13 19:26:00,,0818.4,5.00,0.00,21.9,20.9,00.0,31.0,23.5,02.8,0000.0,0004.60,0001.64,0000.95
2022-04-13 19:27:00,,0818.4,4.99,0.00,21.9,20.8,00.0,31.0,23.5,02.8,0000.0,0005.34,0001.64,0000.95
2022-04-13 19:28:00,,0818.4,4.99,0.00,21.9,20.8,00.0,30.9,23.4,02.9,0000.0,0005.56,0001.63,0000.93
2022-04-13 19:29:00,,0818.4,5.00,0.00,21.9,20.7,00.0,30.9,23.5,03.1,0000.0,0006.28,0001.61,0000.91
2022-04-13 19:30:00,,0818.4,5.00,0.00,21.8,20.6,00.0,30.9,23.4,03.1,0000.0,0006.27,0001.60,0000.90
2022-04-13 19:31:00,,0818.3,5.00,0.00,21.8,20.6,00.0,30.9,23.4,03.1,0000.0,0006.29,0001.62,0000.88
2022-04-13 19:32:00,,0818.2,5.00,0.00,21.8,20.5,00.0,30.9,23.3,03.0,0000.0,0006.21,0001.58,0000.86
2022-04-13 19:33:00,,0818.2,5.00,0.00,21.8,20.7,00.0,30.9,23.4,03.0,0000.0,0006.31,0001.55,0000.84
2022-04-13 19:34:00,,0818.1,5.00,0.00,21.9,21.7,00.0,30.9,23.7,03.2,0000.0,0007.08,0001.59,0000.85
2022-04-13 19:35:00,,0818.3,5.00,0.00,22.0,22.8,00.0,31.0,24.0,03.3,0000.0,0007.21,0001.61,0000.84
2022-04-13 19:36:00,,0818.3,5.00,0.00,22.2,23.1,00.0,31.0,24.2,03.3,0000.0,0007.94,0001.60,0000.83
2022-04-13 19:37:00,,0818.4,4.99,0.00,22.2,22.7,00.0,31.0,24.1,03.2,0000.0,0007.34,0001.58,0000.81
2022-04-13 19:38:00,,0818.2,5.01,0.00,22.2,22.4,00.0,31.0,24.0,02.9,0000.0,0006.69,0001.57,0000.80
2022-04-13 19:39:00,,0817.7,4.99,0.00,22.2,22.0,00.0,31.0,23.9,03.1,0000.0,0006.47,0001.56,0000.79
2022-04-13 19:40:00,,0818.4,4.99,0.00,22.1,21.7,00.0,31.0,23.8,03.1,0000.0,0005.75,0001.59,0000.80
2022-04-13 19:41:00,,0818.5,5.01,0.00,22.1,21.4,00.0,31.0,23.7,03.4,0000.0,0006.07,0001.64,0000.80
2022-04-13 19:42:00,,0818.4,4.99,0.00,22.0,21.2,00.0,31.0,23.6,03.5,0000.0,0006.35,0001.63,0000.81
2022-04-13 19:43:00,,0818.3,5.00,0.00,22.0,21.1,00.0,31.0,23.6,03.3,0000.0,0006.43,0001.64,0000.81
2022-04-13 19:44:00,,0818.3,5.00,0.00,22.0,20.9,00.0,31.0,23.6,03.4,0000.0,0006.33,0001.67,0000.83
2022-04-13 19:45:00,,0818.3,5.00,0.00,21.9,20.8,00.0,31.0,23.6,03.3,0000.0,0006.14,0001.66,0000.84
2022-04-13 19:46:00,,0818.3,5.00,0.00,21.9,20.7,00.0,30.9,23.5,03.3,0000.0,0006.27,0001.66,0000.85
2022-04-13 19:47:00,,0818.4,5.01,0.00,21.9,20.6,00.0,30.9,23.5,03.3,0000.0,0005.28,0001.68,0000.87
2022-04-13 19:48:00,,0818.4,5.00,0.00,21.8,20.6,00.0,30.9,23.4,03.4,0000.0,0004.86,0001.66,0000.88
2022-04-13 19:49:00,,0818.4,4.99,0.00,21.8,20.6,00.0,30.9,23.4,03.6,0000.0,0004.74,0001.67,0000.90
2022-04-13 19:50:00,,0818.4,5.00,0.00,21.8,20.6,00.0,30.9,23.3,03.4,0000.0,0004.61,0001.68,0000.91
2022-04-13 19:51:00,,0818.2,5.01,0.00,21.8,20.6,00.0,30.9,23.3,03.5,0000.0,0004.55,0001.64,0000.91
2022-04-13 19:52:00,,0818.0,4.99,0.00,21.7,20.6,00.0,30.8,23.3,03.5,0000.0,0004.12,0001.57,0000.92
2022-04-13 19:53:00,,0818.3,5.00,0.00,21.7,20.7,00.0,30.8,23.3,03.4,0000.0,0003.76,0001.57,0000.93
2022-04-13 19:54:00,,0818.3,5.01,0.00,21.8,21.6,00.0,30.9,23.6,03.4,0000.0,0003.81,0001.60,0000.94
2022-04-13 19:55:00,,0818.4,5.00,0.00,22.0,22.6,00.0,30.9,24.0,03.4,0000.0,0004.62,0001.58,0000.94
2022-04-13 19:56:00,,0818.4,4.98,0.00,22.1,23.3,00.0,31.0,24.2,03.2,0000.0,0004.58,0001.55,0000.94
2022-04-13 19:57:00,,0818.4,5.01,0.00,22.2,23.0,00.0,31.0,24.2,03.3,0000.0,0004.49,0001.54,0000.94
2022-04-13 19:58:00,,0818.4,4.99,0.00,22.2,22.7,00.0,31.0,24.1,03.3,0000.0,0004.50,0001.53,0000.94
2022-04-13 19:59:00,,0818.5,5.01,0.00,22.2,22.3,00.0,31.0,24.0,03.2,0000.0,0004.59,0001.59,0000.95
